This is the latest recevied weather packets stored in our database for station/object K8GLX. If no packets are shown the sender has not sent any weather packets the latest 1 day(s).
| Time | Temp. | Humidity | Pressure | Rain* | Wind** | Luminosity | Snow |
|---|---|---|---|---|---|---|---|
| 1778040722 | 8.33° C | 99% | 1009.2 hPa | 1.02 mm | 0 m/s | 0 W/m² | - |
| 1778040428 | 8.33° C | 98% | 1009.2 hPa | 1.27 mm | 0.89 m/s, 232° | 0 W/m² | - |
| 1778040122 | 8.89° C | 99% | 1009.2 hPa | 1.52 mm | 0.45 m/s, 355° | 0 W/m² | - |
| 1778039827 | 8.89° C | 99% | 1009.2 hPa | 1.52 mm | 0 m/s | 0 W/m² | - |
| 1778039526 | 8.89° C | 99% | 1009.2 hPa | 1.52 mm | 0 m/s | 0 W/m² | - |
| 1778039358 | 8.89° C | 99% | 1009.2 hPa | 1.78 mm | 0.45 m/s, 164° | 0 W/m² | - |
| 1778038926 | 8.89° C | 99% | 1009.2 hPa | 2.03 mm | 0 m/s | 0 W/m² | - |
| 1778038634 | 8.89° C | 99% | 1009.2 hPa | 2.03 mm | 0 m/s | 0 W/m² | - |
| 1778038325 | 9.44° C | 99% | 1009.2 hPa | 2.29 mm | 0.45 m/s, 321° | 0 W/m² | - |
| 1778038035 | 9.44° C | 99% | 1009.2 hPa | 2.54 mm | 0.45 m/s, 295° | 0 W/m² | - |
| 1778037723 | 9.44° C | 99% | 1009.2 hPa | 2.54 mm | 0.89 m/s, 333° | 0 W/m² | - |
| 1778037430 | 9.44° C | 99% | 1009.2 hPa | 2.29 mm | 0.89 m/s, 267° | 0 W/m² | - |
| 1778037122 | 9.44° C | 99% | 1009.2 hPa | 2.54 mm | 0.45 m/s, 200° | 0 W/m² | - |
| 1778036827 | 9.44° C | 98% | 1009.2 hPa | 2.54 mm | 1.34 m/s, 298° | 0 W/m² | - |
| 1778036520 | 9.44° C | 98% | 1009.2 hPa | 2.29 mm | 0.89 m/s, 315° | 0 W/m² | - |
| 1778036226 | 9.44° C | 98% | 1009.2 hPa | 2.79 mm | 1.79 m/s, 21° | 0 W/m² | - |
| 1778035919 | 9.44° C | 98% | 1008.9 hPa | 2.54 mm | 0.89 m/s, 8° | 0 W/m² | - |
| 1778035629 | 9.44° C | 98% | 1008.9 hPa | 2.54 mm | 0.89 m/s, 6° | 0 W/m² | - |
| 1778035318 | 9.44° C | 98% | 1008.9 hPa | 2.29 mm | 1.79 m/s, 353° | 0 W/m² | - |
| 1778035023 | 9.44° C | 98% | 1008.9 hPa | 2.03 mm | 1.34 m/s, 356° | 0 W/m² | - |
| 1778034717 | 9.44° C | 98% | 1008.9 hPa | 1.78 mm | 1.34 m/s, 5° | 0 W/m² | - |
| 1778034423 | 9.44° C | 98% | 1008.9 hPa | 1.52 mm | 1.34 m/s, 357° | 0 W/m² | - |
| 1778034115 | 9.44° C | 98% | 1008.9 hPa | 1.27 mm | 1.34 m/s, 346° | 0 W/m² | - |
| 1778033820 | 9.44° C | 98% | 1008.9 hPa | 1.52 mm | 0 m/s | 0 W/m² | - |
| 1778033512 | 9.44° C | 98% | 1009.2 hPa | 1.27 mm | 1.79 m/s, 340° | 0 W/m² | - |
* Rain latest hour (hover to see other rain measurements)
** Current wind speed in m/s (hover to see current wind gust speed)